Погода в Коммунаре

Погода в Коммунаре : погода сейчас, прогноз погоды и архив. Всё, что Вы хотите узнать о погоде в Коммунаре!

Хотите узнать прогноз погоды в Коммунаре? Тогда Вам сюда: Погода в Коммунаре

Поиск расширенной информации на нашем сайте:

Другие новости

Новости СМИ2

Главная страница сайта

Новости сайта

03.07.2017

Напоминаем, что на нашем специализированном сайте Метеоцентр.Азия вы можете получить высокодетализированные автоматические прогнозы погоды по пунктам России, СНГ и мира в авиационном формате (включающие направление и скорость ветра, видимость, явления погоды, количество и форму облачности, нижнюю и верхнюю границу облачности).


Погода в Коммунаре - сегодня

Время (UTC), дата Ветер
(°,м/с) 
Видим.   Явления Облачность Т
(°С)
Тd
(°С)
f(%) Тe
(°С)
Pmin
(гПа)
dP
(гПа)
Po
(мм)
O2
(г/м3)
Тmin Tmax R s Состояние
почвы
15 17.10.17 тихо ()   н/о    10/3 600 м кучево-дожд., средняя 
[Cb cap|Ac und]
+2.2 +1.1 92 +2  1026  694  277           
18 17.10.17 тихо ()   н/о    10/10 600 м 
[Ac und]
+1.3 +0.5 94 +1  1025.3  -1  693  278           
21 17.10.17 тихо ()   н/о    10/0 средняя 
[Ac und]
+1.2 +0.4 94 +1  1023.6  -1.5  692  277           
00 18.10.17 тихо ()   н/о    9/0 средняя 
[Ac trans]
+1 -0.1 92 +1  1022.5  -1.1  691  277  +1  +0       
03 18.10.17 тихо ()   20000 м    10/0 средняя 
[Ac und]
+1.8 -1 82 +2  1021.5  -0.7  690  276           
06 18.10.17 090 (В) 20000 м    10/3 600 м кучево-дожд., средняя 
[Cb cap|Ac und]
+4 -0.3 74 +5  1019  -1.4  689  274           
09 18.10.17 тихо ()   20000 м    8/0 средняя, верхняя 
[Ac trans|Ci fib]
+6.6 -0.4 61 +7  1016  -1.8  688  271           
12 18.10.17 тихо ()   н/о    8/0 верхняя 
[Ci fib]
+2 -0.8 82 +2  1017.7  688  275    +7       
15 18.10.17 тихо ()   н/о    4/0 верхняя 
[Ci fib]
-1.2 -2.5 91 -1  1018.7  -0.3  688  279           
18 18.10.17 тихо ()   н/о    ясно 
-1.8 -2.6 94 -2  1018.5  -0.5  687  279           
21 18.10.17 тихо ()   н/о    ясно 
-2.1 -2.9 94 -2  1018.1  -0.3  687  279           
00 19.10.17 тихо ()   н/о    ясно 
-2.2 -2.8 96 -2  1018.1  -0.1  687  279  -2.1        влажная 
03 19.10.17 тихо ()   20000 м    3/0 верхняя 
[Ci fib]
+2 +0.9 92 +2  1017.5  688  275           
06 19.10.17 290 (З) 20000 м    8/0 средняя, верхняя 
[Ac trans|Ci sp]
+10.3 +0.8 52 +10  1014.9  0.3  688  267           
09 19.10.17 090 (В) 20000 м    10/0 средняя 
[Ac As]
+6.8 +0.8 66 +7  1017.8  1.5  689  271           
12 19.10.17 270 (З) н/о  слаб. ливневой дождь  10/8 600 м кучево-дожд., средняя 
[Cb cap|Ac und]
+3.8 +2 88 +3  1020.2  1.2  690  274    +11.4  0.6     
15 19.10.17 340 (С) н/о  {ливн. осадки}  10/4 600 м кучево-дожд., средняя 
[Cb cap|Ac und]
+2.3 +1.3 93 +3  1021.2  0.4  690  276           
18 19.10.17 270 (З) н/о  {ливн. осадки}  9/9 600 м кучево-дожд. 
[Cb cap]
+2.3 +1.8 96 +3  1021.5  0.3  691  276           
21 19.10.17 тихо ()   н/о    ясно 
-0.6 -0.9 98 -1  1021.2  -1.4  690  278           
00 20.10.17 тихо ()   н/о    9/9 600 м кучево-дожд. 
[Cb cap]
-0.6 -1 97 -1  1019  -1.9  688  278  -1      замёрзшая 
03 20.10.17 тихо ()   20000 м    4/3 600 м кучево-дожд., верхняя 
[Cb cap|Ci fib]
+0.6 +0 96 +1  1018.1  -0.4  688  276           
06 20.10.17 230 (ЮЗ) 20000 м  слаб. ливневой дождь  8/6 600 м кучево-дожд., верхняя 
[Cb cap|Ci fib]
+5.6 +0.7 71 +6  1015.9  -0.3  688  271           
09 20.10.17 230 (ЮЗ) 20000 м  слаб. ливневой дождь  8/8 600 м кучево-дожд. 
[Cb cap]
+3 +0.3 82 +2  1017.3  0.4  688  274           
12 20.10.17 270 (З) н/о  слаб. ливневой дождь  10/8 600 м кучево-дожд., средняя 
[Cb cap|Ac und]
+2 -0.2 85 +3  1018.2  0.4  688  275    +5.9     
15 20.10.17 270 (З) н/о  слаб. ливневой дождь  10/6 600 м кучево-дожд., средняя 
[Cb cap|Ac und]
+1.8 +1 94 +3  1017.6  -0.5  688  275           
Время (UTC), дата Ветер
(°,м/с) 
Видим.   Явления Облачность Т
(°С)
Тd
(°С)
f(%) Тe
(°С)
Pmin
(гПа)
dP
(гПа)
Po
(мм)
O2
(г/м3)
Тmin Tmax R s Состояние
почвы

Для получения пояснительной информации подведите курсор к названию столбца.

ПОГОДА в Коммунаре - архив

Всё, что Вы хотите узнать о погоде в Коммунаре - удобно и подробно!

Выберите нужную дату (начиная с 1 января 2015* года) и нажмите кнопку "Найти".
Будут отображены архивные сводки погоды по пункту Коммунар, начиная с указанной даты.


Отображать данные в формате CSV (для использования в таблицах Excel)


Внимание! Наш архив погоды предназначен исключительно для личного некоммерческого использования в познавательных целях. Если Вам необходимы официальные справки о состоянии погоды (для производственных, юридических, коммерческих и т.п. целей), обращайтесь в органы Росгидромета.

*Примечание: данная дата относится к архиву по метеостанциям СССР (Россия, СНГ, Балтия).
Архив по метеостанциям Зарубежной Европы и Азии (кроме Китая) хранится 10 дней, по другим регионам земного шара (Китай, Африка, Америка, Австралия, Океания) - 1 день.

Коммунар - район местоположения метеостанции


Название, широта, долгота, высота метеостанции:
Коммунар 54.3°ш. 89.3°д. 847 м над ур. моря [Российская Федерация]

Дополнительная информация

В oтличие oт бoльшинства пoгoдных сайтoв мы публикуем пoдрoбную метеoинфoрмацию в детальнoм прoфессиoнальнoм фoрмате.

Характеристики температуры и влажнoсти вoздуха измеряются на высoте 2 м в тени вдали oт зданий и деревьев.
Скoрoсть ветра измеряется на высoте 10 м (на урoвне рoста челoвека скoрoсть ветра ниже в 1.5-2 раза). Если метеoстанция нахoдится в гoрoде или в лесу, тo скoрoсть ветра занижена на 2-4 м/с пo сравнению с oткрытым местoм. Скoрoсть ветра над акватoриями крупных рек и oзёр, а также на вершинах хoлмoв на 2-5 м/с выше, чем в oбычных услoвиях.
Атмoсфернoе давление в разных тoчках местнoсти мoжет значительнo oтличаться oт давления на метеoстанции, в зависимoсти oт услoвий рельефа (при пoдъёме на 10 м давление пoнижается примернo на 1 мм рт.ст.).